Location: Unspecified
(51.3762°N, 0.0000°E)
Time: 18:31:15
(UTC+00:00)

Tiangong 2 - Pass Details

Date: 28 May 2019
Orbit: 376 x 388 km, 42.8° (Epoch: 16 June)

Event Time Altitude Azimuth Distance (km) Brightness Sun altitude
Rises 20:57:52 0° 254° (WSW) 2,240 5.3 -7.2°
Drops below altitude 10° 21:01:52 10° 203° (SSW) 1,385 3.6 -7.6°
Maximum altitude 21:01:59 10° 201° (SSW) 1,384 3.6 -7.6°
Enters shadow 21:03:43 - 172° (S) 1,564 3.6 -7.8°
